Weather History for Tekamah, NE

Change the Weather History Date:

Wednesday, February 6, 2013

  Actual Average Record
Temperature  
Mean Temperature 39 °F -  
Max Temperature 48 °F 30 °F 55 °F (1966)
Min Temperature 30 °F 11 °F -16 °F (1982)
Degree Days  
Heating Degree Days 26    
Moisture  
Dew Point 31 °F    
Average Humidity 74    
Maximum Humidity 88    
Minimum Humidity 56    
Precipitation  
Precipitation 0.00 in - - ()
Sea Level Pressure  
Sea Level Pressure 29.94 in    
Wind  
Wind Speed 8 mph (SSE)    
Max Wind Speed 17 mph    
Max Gust Speed 20 mph    
Visibility 8 miles    
Events      
Averages and records for this station are not official NWS values.
T = Trace of Precipitation, MM = Missing Value Source: NWS Daily Summary

Daily Weather History Graph

Daily Weather History Graph

Search for Another Location

Airport:

Trip Planner

Search our weather history database for the weather conditions in past years. The results will help you decide how hot, cold, wet, or windy it might be!

Date:

Astronomy

Feb. 06, 2013 Rise Set
Actual Time 7:31 AM CST 5:46 PM CST
Civil Twilight 7:02 AM CST 6:16 PM CST
Nautical Twilight 6:29 AM CST 6:49 PM CST
Astronomical Twilight 5:56 AM CST 7:21 PM CST
Moon 4:17 AM CST (2/6) 2:04 PM CST (2/6)
Length of Visible Light 11h 13m
Length of Day
10h 15m
Waning Crescent, 17% of the Moon is Illuminated
Feb 6
Waning Crescent
Feb 10
New
Feb 17
First Quarter
Feb 25
Full
Mar 4
Last Quarter

Hourly Weather History & Observations

Time (CST) Temp. Windchill Dew Point Humidity Pressure Visibility Wind Dir Wind Speed Gust Speed Precip Events Conditions
12:54 AM 30.0 °F 24.1 °F 27.0 °F 88% 30.08 in 5.0 mi SSW 5.8 mph - N/A   Clear
1:54 AM 30.9 °F 27.5 °F 27.0 °F 85% 30.07 in 5.0 mi SSE 3.5 mph - N/A   Clear
2:54 AM 30.9 °F 24.3 °F 27.0 °F 85% 30.05 in 5.0 mi SE 6.9 mph - N/A   Clear
3:54 AM 32.0 °F 24.8 °F 27.0 °F 82% 30.02 in 5.0 mi SSE 8.1 mph - N/A   Haze
4:54 AM 30.0 °F 23.2 °F 27.0 °F 88% 30.02 in 6.0 mi SSE 6.9 mph - N/A   Clear
6:54 AM 30.0 °F 21.7 °F 26.1 °F 85% 30.01 in 6.0 mi SE 9.2 mph - N/A   Partly Cloudy
7:54 AM 30.9 °F 22.2 °F 26.1 °F 82% 30.00 in 7.0 mi SE 10.4 mph - N/A   Clear
8:54 AM 34.0 °F 26.6 °F 28.9 °F 82% 29.99 in 8.0 mi SE 9.2 mph - N/A   Clear
9:54 AM 41.0 °F 32.5 °F 30.9 °F 67% 29.97 in 10.0 mi South 17.3 mph - N/A   Partly Cloudy
10:54 AM 43.0 °F 36.0 °F 30.0 °F 60% 29.97 in 10.0 mi South 13.8 mph 19.6 mph N/A   Overcast
11:54 AM 45.0 °F 39.3 °F 32.0 °F 60% 29.96 in 10.0 mi South 11.5 mph - N/A   Overcast
12:54 PM 46.9 °F - 33.1 °F 59% 29.92 in 10.0 mi South 10.4 mph - N/A   Partly Cloudy
1:21 PM 46.4 °F 41.9 °F 33.8 °F 62% 29.90 in 10.0 mi South 9.2 mph - N/A   Mostly Cloudy
1:54 PM 48.9 °F - 34.0 °F 56% 29.89 in 10.0 mi South 11.5 mph - N/A   Overcast
2:54 PM 48.0 °F - 36.0 °F 63% 29.87 in 10.0 mi SSE 10.4 mph - N/A   Overcast
3:22 PM 48.2 °F - 35.6 °F 62% 29.85 in 10.0 mi South 10.4 mph - N/A   Scattered Clouds
3:54 PM 48.0 °F - 36.0 °F 63% 29.86 in 10.0 mi SE 10.4 mph - N/A   Partly Cloudy
4:54 PM 46.0 °F 41.4 °F 35.1 °F 66% 29.84 in 9.0 mi SSE 9.2 mph - N/A   Clear
5:54 PM 39.9 °F - 33.1 °F 77% 29.87 in 9.0 mi Calm Calm - N/A   Clear
6:54 PM 41.0 °F 37.1 °F 33.1 °F 73% 29.88 in 9.0 mi SSE 5.8 mph - N/A   Clear
7:54 PM 37.0 °F 34.5 °F 30.9 °F 79% 29.90 in 9.0 mi NW 3.5 mph - N/A   Scattered Clouds
8:54 PM 39.0 °F 36.8 °F 33.1 °F 79% 29.90 in 6.0 mi NNW 3.5 mph - N/A   Haze
9:54 PM 37.0 °F - 32.0 °F 82% 29.90 in 7.0 mi Calm Calm - N/A   Overcast
10:54 PM 37.9 °F 34.4 °F 33.1 °F 83% 29.90 in 7.0 mi NNW 4.6 mph - N/A   Mostly Cloudy
11:54 PM 37.0 °F 31.6 °F 33.1 °F 86% 29.90 in 6.0 mi NW 6.9 mph - N/A   Overcast